RESURS O1 DEB

Satellite information

Favourite Embed

Satellite Type and Status

DEBRISIN ORBIT

Key statistics

Satellite RESURS O1 DEB at a glance.

Uptime

11263

Days in orbit

Revolutions

≈ 14.3

Per day

Orbit

SSO

Sun Synchronous Orbit

Inclination

97.8

Latest

Satellite identification and parameters

Extended collection of information and parameters for RESURS O1 DEB.

Object identification

Identified? True

Debris? True

Object name: RESURS O1 DEB

International designator: 1994-074D

Object number (NORAD): 23345

Object ID (CCSDS): 23345

Country: COMMONWEALTH OF INDEPENDENT STATES (CIS)

Current information (Y/N): Y

RCS size: SMALL

Orbital parameters

Period: 100.465 minutes

Inclination: 97.8055 deg

SMA: 7158.763 km

Apoapsis: 916.062 km

Periapsis: 645.194 km

RAAN: 66.5571 deg

Eccentricy: 0.01891868

Argument of periapsis: 324.4429 deg

Mean anomaly: 155.3007 deg

Mean motion: 14.3332871 rev/day

Mean motion (dot): 0.00000953 rev/day2

B* drag term: 0.00029631118 1/REarth

Two-line elements (TLE)

Creation date: Sept. 3, 2025, 10:15 a.m.

Reference frame: TEME

Reference center: EARTH

Epoch: Sept. 3, 2025, 1:50 a.m. UTC

TLE line 0: 0 RESURS O1 DEB

TLE line 1: 1 23345U 94074D 25246.07661551 .00000953 00000-0 29631-3 0 9992

TLE line 2: 2 23345 97.8055 66.5571 0189187 324.4429 155.3007 14.33328710606617

Live tracking on map

Real-time ground track for satellite RESURS O1 DEB.

In-orbit conjunctions

A list of the most updated potential collisions computed for object RESURS O1 DEB.

Target Orbit TCA Probability of collision Miss distance Type
CZ-2D DEB SSO 2025-03-30 17:42:35 0.005077946 17.0 (m) DEBRIS
CZ-6A DEB LEO 2025-01-20 10:56:39 0.0003264569 571.0 (m) DEBRIS
DELTA 1 DEB SSO 2024-11-19 11:57:12 0.0001500713 97.0 (m) DEBRIS

Associated space launch

Resurs-O1 N3 or Resurs-O1 1 is the third earth observation satellite in the Russian Resurs-O1 program.

RESURS O1 DEB was lifted into orbit during the mission ‘Zenit-2 | Resurs-O1’, on board a Zenit-2 space rocket.

The launch took place on Nov. 4, 1994, 5:47 a.m. from 45/1.

For more information about the launch, click the button.

Launch to space Zenit-2 | Resurs-O1
Zenit-2 | Resurs-O1

Agency: N/A

Status: Launch Successful

Launch date: Nov. 4, 1994, 5:47 a.m. UTC

Rocket: Zenit-2

Launch pad: 45/1

Location: Baikonur Cosmodrome, Republic of Kazakhstan

...

Latest news about this satellite

There are no fresh news available about this satellite. Check back as we update our databases every day.


Newsletter sign-up

Weekly statistics, charts and insights to help you stay on top of the space industry.